Weather History for KCLS - March, 2013

Change the Weather History Date:

Sunday, March 10, 2013

  Actual Average (KOLM) Record (KOLM)
Temperature  
Mean Temperature 39 °F 44 °F  
Max Temperature 46 °F 53 °F 73 °F (1979)
Min Temperature 32 °F 35 °F 20 °F (2009)
Degree Days  
Heating Degree Days 26 21  
Month to date heating degree days 219  
Since 1 July heating degree days 3941  
Cooling Degree Days 0 0  
Month to date cooling degree days 0  
Year to date cooling degree days 0  
Moisture  
Dew Point 39 °F    
Average Humidity 94    
Maximum Humidity 100    
Minimum Humidity 81    
Precipitation  
Precipitation 0.03 in 0.17 in 1.36 in (1971)
Month to date precipitation 1.80  
Year to date precipitation 14.91  
Sea Level Pressure  
Sea Level Pressure 30.48 in    
Wind  
Wind Speed 2 mph (SSW)    
Max Wind Speed 6 mph    
Max Gust Speed -    
Visibility 7 miles    
Events Rain    
T = Trace of Precipitation, MM = Missing Value Source: NWS Daily Summary

Daily Weather History Graph

Daily Weather History Graph

Search for Another Location

Airport or City:

Trip Planner

Search our weather history database for the weather conditions in past years. The results will help you decide how hot, cold, wet, or windy it might be!

Date:

Astronomy

Mar. 10, 2013 Rise Set
Actual Time 7:33 AM PDT 7:11 PM PDT
Civil Twilight 7:03 AM PDT 7:41 PM PDT
Nautical Twilight 6:28 AM PDT 8:16 PM PDT
Astronomical Twilight 5:53 AM PDT 8:52 PM PDT
Moon 6:39 AM PDT (3/10) 6:24 PM PDT (3/10)
Length of Visible Light 12h 37m
Length of Day
11h 37m
Waning Crescent, 1% of the Moon is Illuminated
Mar 10
Waning Crescent
Mar 11
New
Mar 19
First Quarter
Mar 27
Full
Apr 2
Last Quarter

Hourly Weather History & Observations

Time (PDT) Temp. Windchill Dew Point Humidity Pressure Visibility Wind Dir Wind Speed Gust Speed Precip Events Conditions
12:15 AM 33.8 °F - 32.0 °F 93% 30.52 in 9.0 mi Calm Calm - N/A   Clear
12:35 AM 33.8 °F - 32.0 °F 93% 30.52 in 7.0 mi Calm Calm - N/A   Clear
12:55 AM 32.0 °F 28.7 °F 32.0 °F 100% 30.52 in 4.0 mi SW 3.5 mph - N/A   Clear
1:15 AM 32.0 °F 28.7 °F 32.0 °F 100% 30.52 in 6.0 mi SSW 3.5 mph - N/A   Clear
1:35 AM 32.0 °F - 32.0 °F 100% 30.52 in 6.0 mi Calm Calm - N/A   Clear
1:55 AM 32.0 °F 28.7 °F 32.0 °F 100% 30.52 in 7.0 mi SW 3.5 mph - N/A   Clear
3:15 AM 32.0 °F 28.7 °F 32.0 °F 100% 30.52 in 6.0 mi SW 3.5 mph - N/A   Clear
3:55 AM 32.0 °F 26.4 °F 32.0 °F 100% 30.50 in 10.0 mi South 5.8 mph - N/A   Scattered Clouds
4:15 AM 32.0 °F 28.7 °F 32.0 °F 100% 30.50 in 9.0 mi SW 3.5 mph - N/A   Scattered Clouds
4:35 AM 32.0 °F 27.5 °F 32.0 °F 100% 30.51 in 10.0 mi West 4.6 mph - N/A   Overcast
4:55 AM 32.0 °F - 32.0 °F 100% 30.52 in 10.0 mi Calm Calm - N/A   Overcast
5:15 AM 33.8 °F 30.8 °F 32.0 °F 93% 30.52 in 10.0 mi SW 3.5 mph - N/A   Overcast
5:35 AM 33.8 °F 30.8 °F 32.0 °F 93% 30.52 in 10.0 mi SW 3.5 mph - N/A Rain Light Rain
5:55 AM 33.8 °F - 32.0 °F 93% 30.51 in 10.0 mi Calm Calm - N/A Rain Light Rain
6:15 AM 33.8 °F 30.8 °F 33.8 °F 100% 30.52 in 10.0 mi SW 3.5 mph - 0.01 in   Overcast
6:35 AM 35.6 °F 31.7 °F 33.8 °F 93% 30.51 in 10.0 mi SSW 4.6 mph - 0.01 in   Overcast
6:55 AM 35.6 °F 32.8 °F 35.6 °F 100% 30.51 in 10.0 mi SW 3.5 mph - 0.01 in   Overcast
7:15 AM 35.6 °F 31.7 °F 35.6 °F 100% 30.50 in 10.0 mi South 4.6 mph - N/A Rain Light Rain
7:35 AM 35.6 °F 32.8 °F 35.6 °F 100% 30.50 in 10.0 mi SW 3.5 mph - N/A   Overcast
7:55 AM 35.6 °F 32.8 °F 35.6 °F 100% 30.50 in 10.0 mi SW 3.5 mph - N/A   Overcast
8:15 AM 35.6 °F 32.8 °F 35.6 °F 100% 30.50 in 9.0 mi SW 3.5 mph - N/A   Overcast
8:35 AM 37.4 °F 34.9 °F 35.6 °F 93% 30.50 in 10.0 mi SW 3.5 mph - N/A   Overcast
8:55 AM 37.4 °F 34.9 °F 35.6 °F 93% 30.49 in 10.0 mi SW 3.5 mph - N/A   Mostly Cloudy
9:15 AM 37.4 °F 34.9 °F 35.6 °F 93% 30.50 in 10.0 mi SW 3.5 mph - N/A   Overcast
9:35 AM 39.2 °F 37.0 °F 37.4 °F 93% 30.50 in 6.0 mi SSW 3.5 mph - N/A   Overcast
9:55 AM 39.2 °F 37.0 °F 37.4 °F 93% 30.49 in 3.0 mi South 3.5 mph - N/A Rain Light Rain
10:15 AM 39.2 °F - 37.4 °F 93% 30.50 in 5.0 mi Calm Calm - N/A Rain Light Rain
10:35 AM 39.2 °F - 39.2 °F 100% 30.49 in 5.0 mi Calm Calm - N/A Rain Light Rain
10:55 AM 41.0 °F 39.0 °F 39.2 °F 93% 30.49 in 7.0 mi WSW 3.5 mph - N/A Rain Light Rain
11:15 AM 41.0 °F - 39.2 °F 93% 30.49 in 6.0 mi Calm Calm - N/A Rain Light Rain
11:35 AM 41.0 °F - 39.2 °F 93% 30.49 in 8.0 mi Calm Calm - 0.01 in Rain Light Rain
11:55 AM 41.0 °F - 39.2 °F 93% 30.48 in 6.0 mi Calm Calm - 0.01 in Rain Light Rain
12:15 PM 42.8 °F - 41.0 °F 93% 30.48 in 8.0 mi Calm Calm - N/A   Partly Cloudy
12:35 PM 44.6 °F - 41.0 °F 87% 30.48 in 5.0 mi Calm Calm - N/A   Mostly Cloudy
12:55 PM 44.6 °F - 41.0 °F 87% 30.48 in 5.0 mi Calm Calm - N/A   Overcast
1:15 PM 44.6 °F - 41.0 °F 87% 30.48 in 5.0 mi Calm Calm - N/A   Overcast
1:35 PM 46.4 °F - 41.0 °F 81% 30.47 in 5.0 mi Calm Calm - N/A   Haze
1:55 PM 46.4 °F 45.2 °F 41.0 °F 81% 30.47 in 10.0 mi South 3.5 mph - N/A   Overcast
2:15 PM 46.4 °F - 41.0 °F 81% 30.47 in 7.0 mi Calm Calm - N/A Rain Light Rain
2:35 PM 46.4 °F 45.2 °F 41.0 °F 81% 30.46 in 10.0 mi SSW 3.5 mph - N/A   Overcast
2:55 PM 46.4 °F 45.2 °F 41.0 °F 81% 30.46 in 10.0 mi South 3.5 mph - N/A   Overcast
3:15 PM 46.4 °F 45.2 °F 41.0 °F 81% 30.46 in 10.0 mi South 3.5 mph - N/A   Overcast
3:35 PM 46.4 °F - 41.0 °F 81% 30.46 in 10.0 mi Calm Calm - 0.01 in   Overcast
3:55 PM 46.4 °F - 41.0 °F 81% 30.46 in 10.0 mi Calm Calm - 0.01 in   Overcast
4:15 PM 46.4 °F - 41.0 °F 81% 30.46 in 4.0 mi Calm Calm - N/A   Overcast
4:35 PM 46.4 °F - 42.8 °F 87% 30.46 in 10.0 mi Calm Calm - N/A   Overcast
4:55 PM 46.4 °F - 42.8 °F 87% 30.45 in 10.0 mi Calm Calm - N/A   Overcast
5:15 PM 46.4 °F - 42.8 °F 87% 30.45 in 6.0 mi Calm Calm - N/A   Overcast
5:35 PM 46.4 °F - 42.8 °F 87% 30.45 in 10.0 mi Calm Calm - N/A   Overcast
5:55 PM 46.4 °F 44.3 °F 42.8 °F 87% 30.45 in 8.0 mi SSW 4.6 mph - N/A Rain Light Rain
6:15 PM 46.4 °F - 42.8 °F 87% 30.45 in 9.0 mi Calm Calm - N/A Rain Light Rain
6:35 PM 46.4 °F - 44.6 °F 93% 30.45 in 8.0 mi Calm Calm - N/A Rain Light Rain
7:15 PM 46.4 °F 44.3 °F 44.6 °F 93% 30.45 in 5.0 mi South 4.6 mph - N/A   Overcast
7:35 PM 46.4 °F 45.2 °F 44.6 °F 93% 30.44 in 4.0 mi South 3.5 mph - N/A   Overcast
8:15 PM 46.4 °F - 44.6 °F 93% 30.45 in 5.0 mi Calm Calm - N/A   Overcast
8:35 PM 44.6 °F - 44.6 °F 100% 30.45 in 2.5 mi Calm Calm - N/A   Overcast
8:55 PM 44.6 °F - 44.6 °F 100% 30.45 in 3.0 mi Calm Calm - N/A   Overcast
9:15 PM 44.6 °F - 44.6 °F 100% 30.45 in 7.0 mi Calm Calm - N/A   Mostly Cloudy
9:35 PM 44.6 °F - 44.6 °F 100% 30.44 in 5.0 mi Calm Calm - N/A   Overcast
9:55 PM 44.6 °F - 44.6 °F 100% 30.45 in 3.0 mi Calm Calm - N/A   Overcast
10:15 PM 44.6 °F - 44.6 °F 100% 30.45 in 4.0 mi Calm Calm - N/A   Overcast
10:35 PM 44.6 °F - 44.6 °F 100% 30.45 in 3.0 mi Calm Calm - N/A   Overcast
10:55 PM 44.6 °F - 44.6 °F 100% 30.45 in 5.0 mi Calm Calm - N/A   Overcast
11:15 PM 44.6 °F - 44.6 °F 100% 30.44 in 5.0 mi Calm Calm - N/A   Overcast
11:55 PM 44.6 °F - 44.6 °F 100% 30.44 in 4.0 mi Calm Calm - N/A   Overcast
12:15 AM 44.6 °F - 44.6 °F 100% 30.45 in 3.0 mi Calm Calm - N/A   Overcast
12:35 AM 44.6 °F - 44.6 °F 100% 30.45 in 3.0 mi Calm Calm - N/A   Overcast
12:55 AM 44.6 °F 43.1 °F 44.6 °F 100% 30.45 in 2.0 mi North 3.5 mph - N/A   Overcast